747  
NZUS93 KARX 241910  
HRRWXR  
 
CURRENT HOURLY OBSERVATIONS ACROSS  
MUCH OF THE UPPER MISSISSIPPI VALLEY  
NATIONAL WEATHER SERVICE LA CROSSE WI  
100 PM CST WED FEB 24 2021  
 
   
..SOUTHEAST MINNESOTA
 
 
 
CITY SKY/WX TMP DP RH WIND PRES REMARKS  
ROCHESTER MOSUNNY 36 26 67 NW16G26 30.04R WCI 26  
ROCHESTER/MAYO PTCLDY 36 25 64 NW12G23 30.05R WCI 28  
WINONA MOSUNNY 37 30 75 NW13 30.04R WCI 29  
AUSTIN MOSUNNY 36 28 75 NW15G21 30.06R WCI 26  
ALBERT LEA PTSUNNY 34 28 80 NW10 30.08R WCI 26  
DODGE CENTER MOSUNNY 36 27 69 NW16 30.05R WCI 26  
PRESTON SUNNY 35 25 68 N15G22 30.03R WCI 25  
OWATONNA SUNNY 34 27 75 NW15 30.08R WCI 24  
FARIBAULT N/A 36 28 75 W13 30.09R WCI 27  

 
   
..ELSEWHERE IN MINNESOTA
 
 
 
CITY SKY/WX TMP DP RH WIND PRES REMARKS  
MINNEAPOLIS MOSUNNY 37 24 59 NW14 30.08R WCI 28  
INTNL FALLS SUNNY 28 10 46 NW6 30.03F WCI 22  
DULUTH SUNNY 33 11 39 N13G21 29.99S WCI 24  
RED WING SUNNY 37 21 52 NW10 30.05R WCI 30  
REDWOOD FALLS MOSUNNY 33 24 69 N9 30.14R WCI 25  
MANKATO CLOUDY 32 28 85 W13 30.12R WCI 22  
WORTHINGTON SUNNY 34 25 69 NW14 30.14R WCI 25  
FAIRMONT MOSUNNY 33 26 75 NW15 30.12S WCI 23  

 
   
..SOUTHWEST WISCONSIN
 
 
 
CITY SKY/WX TMP DP RH WIND PRES REMARKS  
LA CROSSE MOSUNNY 40 27 59 NW12 30.01R WCI 33  
PRAIRIE DU CHI MOSUNNY 41 27 58 N13 30.00R  
BOSCOBEL CLOUDY 42 27 55 N16G24 29.99R  
LONE ROCK CLOUDY 41 27 57 N16G24 29.96R  
PLATTEVILLE CLOUDY 39 32 77 NW13G21 29.97R WCI 31  
FORT MC COY N/A 40 26 59 NW13 30.00R WCI 32  
CAMP DOUGLAS PTSUNNY 37 27 65 N14G29 29.96R WCI 29  
MAUSTON-NEW LI CLOUDY 39 27 60 NW14G21 29.95R WCI 31  
VIROQUA CLOUDY 37 30 76 NW15G22 29.97R WCI 28  
WIS DELLS CLOUDY 39 26 59 N13G20 29.93R WCI 31  

 
   
..ELSEWHERE IN WISCONSIN
 
 
 
CITY SKY/WX TMP DP RH WIND PRES REMARKS  
MILWAUKEE CLOUDY 40 31 70 NW13G23 29.86R WCI 32  
MADISON CLOUDY 38 29 70 NW9G18 29.93R WCI 31  
GREEN BAY PTSUNNY 39 28 64 N12 29.87R WCI 32  
EAU CLAIRE MOSUNNY 37 24 59 N14G22 30.02R WCI 28  
BLACK RVR FLS CLOUDY 39 27 63 NW13 30.00R WCI 31  
MEDFORD CLOUDY 32 24 73 N15G22 29.95R WCI 21  
WAUSAU CLOUDY 35 24 64 NW12G23 29.92R WCI 27  
WIS RAPIDS CLOUDY 38 26 62 NW18G26 29.96R WCI 28  
MARSHFIELD CLOUDY 36 24 62 N18G26 29.95R WCI 26  
RICE LAKE MOSUNNY 34 23 64 NW8 30.04R WCI 27  

 
   
..NORTHEAST IOWA
 
 
 
CITY SKY/WX TMP DP RH WIND PRES REMARKS  
WATERLOO MOSUNNY 38 29 70 N17 30.05R WCI 28  
DUBUQUE CLOUDY 37 30 75 N13 29.97R WCI 29  
DECORAH N/A 36 32 87 NW16 30.01R WCI 26  
MASON CITY MOSUNNY 34 26 72 N20 30.09R WCI 23  
CHARLES CITY CLOUDY 36 28 75 NW18 30.06R WCI 25  
OELWEIN CLOUDY 36 30 80 N15 30.04R WCI 26  

 
   
..ELSEWHERE IN IOWA
 
 
 
CITY SKY/WX TMP DP RH WIND PRES REMARKS  
DES MOINES MOSUNNY 39 29 67 N14 30.12R WCI 31  
IOWA CITY CLOUDY 38 30 73 NW14G29 30.05R WCI 30  
FORT DODGE CLOUDY 34 27 75 NW10G16 30.14R WCI 26  
MARSHALLTOWN NOT AVBL  
CEDAR RAPIDS CLOUDY 36 30 79 NW13 30.03R WCI 27  

 
   
..NORTHERN ILLINOIS
 
 
 
CITY SKY/WX TMP DP RH WIND PRES REMARKS  
CHICAGO-OHARE CLOUDY 42 31 64 NW18 29.87R  
CHICAGO-MIDWAY MOSUNNY 44 30 57 NW14G28 29.87R  
MOLINE CLOUDY 39 30 70 NW16G28 29.99R WCI 30  
ROCKFORD CLOUDY 40 30 67 NW14 29.93R WCI 32  
PEORIA SUNNY 46 33 60 NW15G25 29.96R  

 
 
NOTE: "FAIR" INDICATES FEW OR NO CLOUDS BELOW 12,000 FEET WITH NO  
SIGNIFICANT WEATHER AND/OR OBSTRUCTIONS TO VISIBILITY. WIND  
SPEEDS ARE IN MILES-PER-HOUR.  
 
 
CLICK HERE TO GO TO PREVIOUS BULLETINS.

The Nexlab WI Page
The Nexlab IA Page
The Nexlab MN Page Main Text Page